Location: *
(45.1961°N, 1.9694°E)
Time: 20:37:59
(UTC+00:00)

USA 234 - Pass Details

Date: 25 August 2019
Orbit: 1103 x 1105 km, 123.0° (Epoch: 06 October)

Event Time Altitude Azimuth Distance (km) Brightness Sun altitude
Exits shadow 20:06:50 19° 132° (SE) 2,357 4.4 -14.3°
Maximum altitude 20:11:47 82° 219° (SW) 1,116 3.3 -15.1°
Drops below altitude 10° 20:18:22 10° 308° (NW) 2,967 6.9 -16.1°
Sets 20:20:52 0° 309° (NW) 3,928 8.0 -16.4°
